Home > Weather > Gatineau > Past weeks

Flag for Canada Weather for the Past 2 Weeks in Gatineau, Quebec, Canada

Now
18 °F

Mostly cloudy.


Feels Like: 4 °F
Forecast: 16 / 22 °F
Wind: 14 mph from East

Location: Ottawa Int'L. Ont.

Current Time: Feb 8, 2016 at 9:11:08 PM

Latest Report: Feb 8, 2016 at 8:00 PM


Visibility: 15 mi

Pressure: 29.85 "Hg

Humidity: 58%

Dew point: 5 °F

Location of GatineauLocation

Historic Weather in Gatineau — Graph

°F

Gatineau Temperature Yesterday

Maximum temperature yesterday: 32 °F (at 12:00 AM)
Minimum temperature yesterday: 16 °F (at 8:00 PM)
Average temperature yesterday: 24 °F

High & Low Weather Summary for the Past Weeks

 TemperatureHumidityPressure
High46 °F (Feb 3, 9:00 PM)100% (Jan 29, 7:00 AM)30.43 "Hg (Jan 29, 7:00 AM)
Low10 °F (Jan 29, 11:00 PM)42% (Feb 8, 2:00 PM)29.38 "Hg (Feb 1, 3:00 AM)
Average27 °F75%29.93 "Hg
* Reported Jan 24 8:00 PM — Feb 8 8:00 PM, Gatineau, Weather by CustomWeather, © 2016

Note: Actual official high and low records may vary slightly from our data, if they occured in-between our weather recording intervals... More about our weather records

Advertising

Gatineau Weather History for the Previous 24 Hours

 ConditionsComfort  
Time TempWeatherWind HumidityBarometerVisibility
8:00 PM
Mon, Feb 8
18 °FMostly cloudy.14 mph58%29.85 "Hg15 mi
7:00 PM18 °FMostly cloudy.13 mph53%29.87 "Hg15 mi
6:00 PM18 °FMostly cloudy.17 mph53%29.87 "Hg15 mi
5:00 PM19 °FOvercast.20 mph49%29.86 "Hg15 mi
4:00 PM21 °FOvercast.9 mph49%29.87 "Hg15 mi
3:00 PM21 °FOvercast.16 mph45%29.86 "Hg15 mi
2:00 PM21 °FOvercast.15 mph42%29.87 "Hg15 mi
1:00 PM21 °FPartly sunny.14 mph45%29.89 "Hg15 mi
12:00 PM19 °FPartly sunny.15 mph53%29.93 "Hg15 mi
11:00 AM19 °FPartly sunny.16 mph49%29.96 "Hg15 mi
10:00 AM19 °FOvercast.17 mph53%29.96 "Hg15 mi
9:00 AM19 °FOvercast.14 mph49%29.97 "Hg15 mi
8:00 AM18 °FOvercast.21 mph53%29.96 "Hg15 mi
7:00 AM18 °FOvercast.15 mph53%29.96 "Hg15 mi
6:00 AM18 °FOvercast.16 mph53%29.96 "Hg15 mi
5:00 AM18 °FMostly cloudy.13 mph53%29.97 "Hg15 mi
4:00 AM18 °FPassing clouds.13 mph58%29.98 "Hg15 mi
3:00 AM18 °FOvercast.14 mph53%30.00 "Hg15 mi
2:00 AM16 °FOvercast.10 mph57%30.02 "Hg15 mi
1:00 AM16 °FMostly cloudy.12 mph53%30.04 "Hg15 mi
12:00 AM16 °FPartly cloudy.15 mph53%30.06 "Hg15 mi
11:00 PM
Sun, Feb 7
16 °FPassing clouds.14 mph48%30.09 "Hg15 mi
10:00 PM16 °FPassing clouds.17 mph48%30.09 "Hg15 mi
9:00 PM16 °FPassing clouds.14 mph53%30.12 "Hg15 mi
Weather by CustomWeather, © 2016

See weather overviewHow to use our weather pages